Location: Ladrillo (historical)
(32.8195°N, 117.2231°W)
Time: 00:42:30
(UTC+00:00)

Courier 1B - Pass Details

Date: 11 March 2021
Orbit: 963 x 1209 km, 28.3° (Epoch: 15 April)

Event Time Altitude Azimuth Distance (km) Brightness Sun altitude
Rises 12:28:34 0° 243° (WSW) 3,851 - -20.8°
Reaches altitude 10° 12:31:28 10° 238° (WSW) 2,857 - -20.2°
Exits shadow 12:34:22 25° 226° (SW) 1,947 8.6 -19.6°
Maximum altitude 12:38:02 47° 167° (SSE) 1,315 8.2 -18.8°
Drops below altitude 10° 12:44:17 10° 95° (E) 2,722 11.1 -17.5°
Sets 12:46:59 0° 90° (E) 3,652 12.2 -17.0°
